Weather History for Austin Bergstrom, TX

Change the Weather History Date:

Sunday, March 30, 2014

  Actual Average Record
Temperature  
Mean Temperature 59 °F 63 °F  
Max Temperature 79 °F 76 °F 91 °F (1974)
Min Temperature 39 °F 50 °F 31 °F (2003)
Degree Days  
Heating Degree Days 6 4  
Month to date heating degree days 280 219  
Since 1 July heating degree days 2097 1834  
Cooling Degree Days 0 2  
Month to date cooling degree days 25 39  
Year to date cooling degree days 42 55  
Growing Degree Days 10 (Base 50)    
Moisture  
Dew Point 44 °F    
Average Humidity 64    
Maximum Humidity 96    
Minimum Humidity 31    
Precipitation  
Precipitation 0.00 in 0.06 in 2.07 in (1976)
Month to date precipitation 1.19 2.45  
Year to date precipitation 2.28 7.05  
Snow  
Snow 0.00 in - - ()
Month to date snowfall 0.0  
Since 1 July snowfall T  
Snow Depth 0.00 in    
Sea Level Pressure  
Sea Level Pressure 30.13 in    
Wind  
Wind Speed 11 mph (South)    
Max Wind Speed 26 mph    
Max Gust Speed 31 mph    
Visibility 10 miles    
Events      
T = Trace of Precipitation, MM = Missing Value Source: NWS Daily Summary

Daily Weather History Graph

Daily Weather History Graph

Search for Another Location

Airport:

Trip Planner

Search our weather history database for the weather conditions in past years. The results will help you decide how hot, cold, wet, or windy it might be!

Date:

Astronomy

Mar. 30, 2014 Rise Set
Actual Time 7:22 AM CDT 7:48 PM CDT
Civil Twilight 6:58 AM CDT 8:12 PM CDT
Nautical Twilight 6:30 AM CDT 8:40 PM CDT
Astronomical Twilight 6:01 AM CDT 9:09 PM CDT
Moon 7:08 AM CDT (3/30) 8:00 PM CDT (3/30)
Length of Visible Light 13h 14m
Length of Day
12h 26m
Waning Crescent, 0% of the Moon is Illuminated
Mar 30
Waning Crescent
Mar 30
New
Apr 7
First Quarter
Apr 15
Full
Apr 22
Last Quarter

Hourly Weather History & Observations

Time (CDT) Temp. Windchill Dew Point Humidity Pressure Visibility Wind Dir Wind Speed Gust Speed Precip Events Conditions
12:53 AM 45.0 °F - 41.0 °F 86% 30.22 in 10.0 mi Calm Calm - N/A   Clear
1:53 AM 45.0 °F 43.5 °F 41.0 °F 86% 30.22 in 10.0 mi West 3.5 mph - N/A   Clear
2:53 AM 41.0 °F - 37.9 °F 89% 30.20 in 10.0 mi Calm Calm - N/A   Clear
3:53 AM 43.0 °F 39.5 °F 41.0 °F 93% 30.19 in 10.0 mi WSW 5.8 mph - N/A   Clear
4:53 AM 41.0 °F 39.0 °F 37.9 °F 89% 30.18 in 10.0 mi West 3.5 mph - N/A   Clear
5:53 AM 42.1 °F - 37.9 °F 85% 30.19 in 10.0 mi Calm Calm - N/A   Scattered Clouds
6:53 AM 42.1 °F 40.2 °F 39.0 °F 89% 30.21 in 10.0 mi West 3.5 mph - N/A   Scattered Clouds
7:53 AM 43.0 °F 41.3 °F 39.9 °F 89% 30.22 in 10.0 mi WSW 3.5 mph - N/A   Scattered Clouds
8:53 AM 54.0 °F - 45.0 °F 72% 30.22 in 10.0 mi Calm Calm - N/A   Mostly Cloudy
9:53 AM 64.0 °F - 44.1 °F 48% 30.22 in 10.0 mi South 11.5 mph - N/A   Mostly Cloudy
10:53 AM 69.1 °F - 42.1 °F 38% 30.21 in 10.0 mi SSE 16.1 mph - N/A   Mostly Cloudy
11:53 AM 73.0 °F - 41.0 °F 31% 30.18 in 10.0 mi SSE 15.0 mph - N/A   Mostly Cloudy
12:53 PM 75.0 °F - 43.0 °F 32% 30.16 in 10.0 mi SSE 13.8 mph 20.7 mph N/A   Scattered Clouds
1:53 PM 75.9 °F - 46.0 °F 35% 30.12 in 10.0 mi South 13.8 mph 21.9 mph N/A   Partly Cloudy
2:53 PM 77.0 °F - 46.0 °F 33% 30.09 in 10.0 mi South 13.8 mph 21.9 mph N/A   Partly Cloudy
3:53 PM 79.0 °F - 48.0 °F 34% 30.05 in 10.0 mi South 15.0 mph 23.0 mph N/A   Partly Cloudy
4:53 PM 79.0 °F - 48.9 °F 35% 30.02 in 10.0 mi SSE 17.3 mph 26.5 mph N/A   Partly Cloudy
5:53 PM 77.0 °F - 51.1 °F 40% 30.01 in 10.0 mi SSE 21.9 mph 26.5 mph N/A   Clear
6:53 PM 73.0 °F - 51.1 °F 46% 30.01 in 10.0 mi SSE 18.4 mph 27.6 mph N/A   Clear
7:53 PM 69.1 °F - 48.0 °F 47% 30.02 in 10.0 mi SSE 18.4 mph - N/A   Partly Cloudy
8:53 PM 64.9 °F - 46.9 °F 52% 30.04 in 10.0 mi SSE 15.0 mph - N/A   Clear
9:53 PM 63.0 °F - 48.9 °F 60% 30.03 in 10.0 mi SSE 15.0 mph - N/A   Clear
10:53 PM 61.0 °F - 51.1 °F 70% 30.04 in 10.0 mi SSE 15.0 mph - N/A   Clear
11:33 PM 61.0 °F - 52.0 °F 72% 30.05 in 10.0 mi South 10.4 mph - N/A   Mostly Cloudy
11:53 PM 61.0 °F - 52.0 °F 72% 30.03 in 10.0 mi SSE 11.5 mph - N/A   Overcast